Location: Newark
(13.6797°N, 8.5297°E)
Time: 14:31:18
(UTC+00:00)

A-11 Canister half - Pass Details

Date: 23 January 2020
Orbit: 1517 x 1683 km, 47.2° (Epoch: 22 February)

Event Time Altitude Azimuth Distance (km) Brightness Sun altitude
Rises 20:51:32 0° 217° (SW) 4,844 12.1 -49.9°
Reaches altitude 10° 20:54:42 10° 215° (SW) 3,836 11.4 -50.6°
Enters shadow 20:58:13 26° 212° (SSW) 2,765 10.5 -51.4°
Maximum altitude 21:04:26 78° 130° (SE) 1,604 - -52.9°
Drops below altitude 10° 21:13:50 10° 46° (NE) 3,711 - -55.1°
Sets 21:16:50 0° 45° (NE) 4,680 - -55.8°
